Theta_e
333 330 321 312 312 312 308 302 296 293 294 289 283 287 290 291 291 292 293 294 295 296 296 298 295 297 297 294 294 293 295 300 298 293 291 297 314 331 331 334 338 339 340 341 342 344 345 347 347 346 345 344 343 343 343 342 342 342 342 342 343 342 342 343 345 345 346 345 345 344 346 346 344 343 342 341 339 338 338 338 338 338 338 336 337 338 338 338 338 337 337 337 338 338 339 339 338
329 324 313 313 315 310 304 297 290 285 285 284 286 286 287 288 291 290 292 292 294 299 296 300 302 303 303 303 300 299 296 305 297 306 307 314 332 332 333 336 338 338 341 342 342 342 342 344 347 346 344 343 343 343 343 343 342 343 343 345 345 345 345 344 345 346 346 346 345 345 346 345 345 344 343 342 341 341 339 338 338 338 338 338 338 339 338 338 337 337 337 337 338 339 338 337 337
328 315 313 313 310 305 301 297 295 282 286 284 282 286 288 289 289 291 292 292 296 299 301 302 301 300 300 300 299 298 293 309 310 310 315 328 327 330 333 337 339 341 342 342 341 341 340 343 346 346 343 342 342 343 343 343 343 345 346 345 346 346 344 344 345 346 346 345 345 344 344 345 344 342 341 340 339 339 339 339 338 337 337 337 338 338 338 337 336 336 337 337 338 338 338 337 336
317 314 313 309 307 300 294 291 286 286 289 281 281 287 288 288 290 291 291 290 294 298 298 299 302 301 300 297 300 303 301 308 312 316 321 326 320 330 335 337 340 342 343 342 341 340 339 343 345 345 343 342 343 343 343 343 345 346 345 345 345 345 345 344 346 346 346 345 345 345 345 345 345 344 343 342 341 340 338 337 337 337 337 337 338 337 337 337 337 336 337 337 337 337 337 336 335
311 315 312 304 303 302 293 290 287 284 287 283 289 288 288 287 291 290 294 292 294 296 296 299 305 307 303 301 303 296 298 308 315 314 317 323 326 335 337 339 341 342 341 340 340 340 339 343 343 344 342 342 343 342 343 345 346 345 345 345 345 346 345 346 346 346 345 346 345 345 345 344 344 343 342 341 340 340 339 339 338 338 337 338 338 338 338 338 337 336 336 336 336 337 337 336 335
312 313 314 311 305 303 297 293 290 289 292 286 287 288 288 291 291 289 297 298 297 299 297 299 304 305 308 310 308 300 303 308 315 314 318 324 332 336 339 340 341 341 341 338 337 339 340 342 342 343 341 341 342 342 343 346 345 345 345 345 346 346 346 346 346 346 345 345 345 346 345 344 344 344 343 342 341 341 340 339 339 338 338 338 337 338 338 338 336 336 336 336 336 336 336 335 336
313 309 309 306 303 301 294 288 288 288 292 289 289 288 291 291 292 294 298 300 301 300 296 303 305 306 305 307 309 311 309 317 317 319 322 325 333 337 339 340 340 339 341 337 335 338 340 341 343 343 342 341 342 342 342 345 345 345 345 346 346 346 346 346 346 346 346 345 346 345 345 345 344 343 342 342 341 340 339 339 338 338 337 337 337 338 337 337 337 336 336 336 336 335 335 336 336
313 311 305 299 295 295 292 290 289 288 293 290 289 293 292 293 293 296 297 296 298 301 302 302 301 301 302 309 303 311 314 315 317 317 323 332 333 336 339 340 338 339 340 335 334 337 342 341 342 342 343 341 341 342 341 342 345 345 345 345 346 346 346 346 346 346 346 345 345 345 345 345 344 342 342 342 341 340 340 339 339 338 337 337 337 337 337 337 336 336 336 336 336 335 335 335 335
312 308 304 300 295 290 288 292 293 292 292 291 293 293 302 294 296 297 297 295 298 297 302 304 300 300 298 306 306 311 312 317 318 321 328 332 333 336 338 338 338 338 337 336 333 335 336 339 341 342 342 342 341 341 341 343 346 345 345 345 346 346 345 345 346 346 346 346 346 345 345 345 344 343 342 342 341 340 340 339 338 338 337 337 337 336 336 336 336 335 336 335 335 335 335 335 335
308 307 300 297 295 293 288 289 294 292 291 291 295 298 296 296 297 296 297 299 299 299 301 299 299 300 301 303 306 311 315 316 322 324 327 331 332 335 336 337 338 336 335 334 334 333 332 342 339 340 340 341 341 341 341 343 346 345 344 346 346 345 345 345 345 346 347 346 346 346 345 345 344 344 343 342 341 340 340 339 339 338 338 337 337 337 337 336 335 335 336 335 334 334 334 334 334
303 303 301 296 289 288 291 292 291 294 293 292 293 295 297 296 297 295 295 299 296 299 300 301 304 303 306 306 305 311 315 318 323 323 326 330 331 331 333 335 336 337 334 333 333 332 333 335 342 338 339 339 340 341 341 342 344 342 343 346 345 345 345 345 345 345 346 346 346 346 345 345 345 344 343 343 342 340 340 339 338 338 337 337 337 337 336 336 336 335 335 335 334 334 334 333 334
304 300 298 291 290 292 290 293 294 295 293 291 299 298 297 297 295 296 296 298 298 298 300 303 304 306 305 303 306 313 315 319 318 322 325 328 329 330 330 330 332 334 333 331 331 330 331 332 336 340 337 337 337 338 339 340 343 341 344 346 345 344 345 345 345 345 346 346 346 345 345 345 344 344 344 343 342 341 340 339 339 338 337 337 337 336 336 336 335 335 336 335 334 334 334 333 333
304 299 296 294 294 293 292 293 293 295 290 291 297 300 297 297 297 295 295 297 297 298 299 300 308 308 300 305 307 310 316 318 320 322 325 327 327 328 328 329 330 330 330 328 330 330 329 331 332 335 334 335 334 335 336 338 341 342 344 345 345 345 345 345 345 345 345 345 345 345 345 344 345 345 344 343 341 341 342 341 340 338 338 337 337 337 336 336 336 336 335 336 335 335 334 333 333
305 301 300 297 293 292 293 295 292 292 290 294 293 296 298 298 296 295 296 297 296 297 299 300 310 307 305 304 305 306 310 317 320 322 325 325 325 326 326 328 328 329 328 328 329 329 330 329 330 330 331 331 329 332 334 335 338 341 342 343 343 344 344 344 344 344 345 344 344 343 343 344 344 344 343 341 340 340 341 339 339 340 338 338 337 336 336 336 336 335 336 336 335 335 335 334 334
308 302 296 294 292 292 293 296 296 288 290 291 298 296 297 300 296 295 299 297 298 297 302 307 308 303 298 304 299 308 314 319 322 322 324 324 324 324 324 327 327 326 327 328 329 328 329 328 328 328 328 328 328 326 326 332 334 336 338 340 340 341 341 341 340 340 341 340 340 340 341 341 341 341 340 339 338 338 338 335 334 338 339 338 337 337 336 336 336 335 335 336 336 336 335 335 334
306 300 298 298 293 293 295 294 290 290 294 292 297 296 298 299 295 298 298 299 299 301 303 306 307 302 303 304 306 306 317 320 321 323 324 323 321 320 322 323 325 325 326 327 327 327 328 328 327 327 327 327 326 325 324 326 332 333 334 336 337 338 338 338 337 336 336 335 335 336 336 338 338 337 337 336 335 336 337 331 331 335 339 338 338 337 337 337 336 336 336 336 336 336 335 335 336
306 304 298 291 294 293 296 296 294 297 295 295 295 297 298 298 299 300 300 301 302 301 306 309 307 312 306 305 310 313 319 320 321 323 322 321 322 320 319 321 323 323 325 325 326 327 326 327 326 326 325 326 326 326 326 328 332 331 331 330 333 334 335 335 334 332 331 330 330 330 332 335 332 332 333 331 332 332 329 327 329 333 336 339 339 339 337 337 336 336 336 336 336 336 336 335 333
306 300 293 292 292 294 297 299 297 302 300 298 296 296 298 296 299 302 302 303 300 303 306 306 309 309 310 311 312 316 319 320 322 322 321 320 320 321 322 323 323 323 325 325 325 326 326 326 326 326 325 326 326 327 327 328 332 332 335 335 335 335 333 332 333 337 338 336 328 333 334 334 332 329 329 334 329 329 328 326 327 330 334 336 337 338 339 339 338 336 337 337 336 336 334 325 321
301 296 296 297 293 298 302 301 300 299 299 295 296 295 297 298 299 301 300 298 301 302 303 303 307 308 310 312 315 317 319 319 321 321 320 320 320 321 321 323 322 324 324 325 325 325 326 326 326 326 325 326 326 328 329 330 332 333 334 335 334 331 335 334 336 336 336 336 333 334 334 335 335 334 330 329 328 326 328 325 326 329 332 333 334 336 336 336 337 338 338 337 337 334 329 320 318
301 300 295 295 300 301 301 302 305 302 300 298 296 296 297 299 299 300 299 296 298 299 298 301 304 306 308 311 312 316 318 318 319 320 320 320 320 322 322 322 322 323 324 324 324 324 325 326 325 326 325 326 326 328 329 330 330 332 334 334 334 334 334 334 336 336 336 335 335 335 335 335 336 336 335 336 336 328 326 324 324 325 327 329 329 332 333 333 335 335 335 334 333 327 320 319 320
302 300 296 299 302 302 304 302 304 303 300 298 297 296 297 298 298 299 296 299 298 298 298 302 302 304 309 311 313 315 317 317 316 317 319 319 320 321 322 323 323 323 323 322 322 324 325 325 325 325 325 325 326 327 328 330 330 331 332 333 334 334 334 335 336 336 336 335 335 336 336 335 335 336 335 335 334 329 325 324 324 323 322 323 326 323 323 323 325 322 321 323 320 322 321 323 324
302 302 302 301 303 303 307 303 301 302 299 298 297 298 298 299 299 296 299 297 295 300 303 302 303 305 312 312 313 314 316 317 317 316 318 319 319 320 321 321 318 318 319 322 323 324 324 325 325 325 325 325 325 326 328 330 330 329 330 332 333 333 334 334 334 335 336 337 336 335 335 335 334 335 335 335 335 335 332 330 327 324 322 323 322 323 321 320 321 319 320 321 322 323 325 324 324
299 300 300 301 302 304 305 304 302 301 302 299 297 300 300 299 300 295 299 299 298 298 299 302 303 309 314 315 314 314 315 317 317 317 317 317 318 319 321 322 321 320 320 322 323 323 324 324 324 325 325 325 324 325 327 328 329 330 330 332 331 331 334 334 334 334 335 336 336 335 334 334 334 334 333 334 334 335 334 333 331 330 328 326 323 323 322 320 322 323 324 325 324 324 325 324 324
301 300 299 302 303 305 304 307 301 301 302 304 300 301 300 298 298 298 297 299 299 298 298 298 302 314 315 314 314 315 316 317 318 320 319 319 320 320 321 321 322 319 319 321 322 323 322 323 324 324 324 324 324 324 325 327 329 330 330 330 331 330 332 333 333 334 335 335 335 336 333 335 334 333 333 333 333 334 334 334 333 332 331 329 328 326 325 324 325 325 324 324 323 323 323 324 323
302 300 299 300 302 303 304 304 303 302 301 301 301 300 300 299 299 297 297 300 301 305 306 308 313 313 313 314 314 315 314 315 316 318 318 319 318 317 317 318 319 319 320 321 322 322 323 323 322 323 324 324 324 324 324 326 327 329 330 330 330 329 331 332 332 332 333 334 334 334 333 333 334 333 332 332 333 333 333 334 333 332 332 331 330 329 328 327 327 326 325 324 323 322 322 321 322
301 302 299 301 302 302 302 303 303 302 302 301 302 299 299 300 304 300 301 301 300 308 311 312 312 312 312 313 314 315 315 315 316 315 318 319 316 316 317 318 319 319 322 322 321 322 323 323 322 322 323 324 324 323 323 323 324 326 328 329 330 329 330 332 332 331 331 332 333 334 334 333 333 333 332 332 332 332 332 333 333 333 332 332 330 329 329 328 328 327 326 325 324 323 322 322 320
300 302 301 301 304 304 302 303 303 302 302 300 302 299 300 303 302 300 304 304 308 309 309 310 312 312 313 314 314 314 315 315 315 317 313 314 316 317 318 318 318 320 321 321 322 322 322 322 323 322 322 322 323 323 323 323 323 323 324 326 328 329 330 330 331 331 331 331 332 333 333 333 332 333 333 332 332 331 331 332 332 332 332 331 331 330 329 328 328 328 327 326 325 324 324 323 321
302 302 302 301 301 301 301 301 301 302 303 300 302 301 302 302 301 301 306 306 308 308 309 310 309 311 313 313 314 315 315 316 314 314 315 314 316 317 318 318 319 319 320 321 322 322 322 322 323 323 323 323 322 323 322 322 322 322 322 324 325 326 328 329 329 330 329 330 331 332 333 333 331 332 332 332 331 330 330 330 331 331 331 332 331 330 330 329 329 329 328 327 327 326 325 324 322
299 301 298 298 300 302 301 301 300 301 302 301 301 301 299 299 300 303 306 304 304 307 309 310 310 311 312 313 314 314 315 315 314 315 316 317 317 318 318 320 320 319 321 321 322 320 321 322 323 323 324 323 322 323 323 323 323 322 322 323 324 324 325 326 327 328 329 329 330 331 332 332 332 331 332 331 329 329 329 328 329 329 330 331 331 330 330 329 328 327 327 327 326 324 323 323 322
298 298 296 297 297 298 303 301 299 301 302 300 303 294 297 300 304 305 306 304 302 305 307 309 311 311 312 312 314 315 315 315 315 317 318 318 318 318 317 319 319 319 319 320 319 320 321 322 323 324 323 324 323 323 324 324 323 323 323 323 323 323 324 325 325 327 327 328 328 329 330 331 330 331 331 330 330 329 328 328 328 328 329 330 330 329 329 328 328 327 326 325 322 322 322 322 321
297 294 296 292 291 292 297 303 298 301 301 300 303 296 295 299 302 306 307 304 303 303 304 306 309 310 310 311 313 314 316 317 317 318 318 319 319 319 319 319 319 319 319 318 319 320 320 321 322 323 323 323 323 323 323 324 324 324 323 323 324 324 324 324 325 325 326 327 328 328 328 329 329 330 330 330 329 329 328 327 327 328 328 329 329 329 328 328 327 326 325 324 324 322 322 321 321
292 293 291 288 292 289 295 299 301 301 301 300 302 296 298 298 301 303 305 303 303 304 304 305 305 308 309 309 311 313 315 317 317 318 318 319 319 319 319 319 320 319 319 320 319 318 319 319 320 321 322 322 323 323 324 324 324 324 324 323 324 324 324 324 324 324 325 326 327 327 327 327 327 328 328 328 328 328 327 327 327 327 327 328 328 328 327 327 327 326 326 325 324 323 321 321 321
291 293 286 290 289 291 292 297 300 305 301 299 302 294 291 298 302 303 302 304 302 303 305 305 305 305 306 307 308 310 312 312 314 317 318 319 319 320 320 320 320 320 320 320 319 318 318 318 318 319 320 321 322 323 323 323 324 324 324 324 323 323 324 324 325 325 324 325 326 327 327 326 326 326 326 327 327 327 327 326 326 325 325 326 326 327 326 326 326 325 325 323 324 324 323 322 321
289 291 291 288 291 289 291 294 298 299 302 299 298 298 293 297 299 302 302 302 302 302 304 305 306 306 306 306 305 306 306 308 309 312 315 318 319 320 320 320 320 319 320 319 320 319 318 319 319 319 320 321 322 322 323 323 324 324 323 324 322 323 323 324 324 324 324 324 325 326 326 326 325 326 326 326 327 327 327 327 326 324 322 323 325 325 325 326 325 325 324 324 322 322 322 322 322
289 289 287 288 286 291 291 290 292 298 298 299 297 297 299 299 299 299 301 299 301 303 305 306 306 306 305 304 305 305 306 306 307 310 311 313 315 318 319 320 320 319 320 319 319 320 319 319 318 318 318 320 320 321 321 321 322 322 322 322 322 322 322 323 323 323 324 324 324 324 324 325 325 325 326 326 327 327 327 327 326 325 322 322 323 324 324 324 323 323 323 323 321 322 322 323 323
290 291 292 291 289 288 290 290 292 300 297 297 297 297 298 299 301 303 301 299 300 302 303 303 303 302 303 303 304 304 305 306 309 311 310 309 310 313 316 319 320 321 321 320 319 319 319 319 318 319 318 319 320 320 320 319 320 319 319 318 319 321 322 321 322 323 323 323 323 323 323 324 324 324 325 325 326 325 326 327 326 326 323 322 322 322 323 323 323 322 322 322 322 321 320 321 321
293 292 291 289 288 287 288 291 293 298 297 297 298 299 298 300 301 303 304 300 298 299 299 301 302 303 303 303 304 304 304 306 310 309 309 309 310 310 311 314 317 318 320 320 319 319 319 319 318 318 319 319 319 319 319 319 318 318 317 319 320 321 321 321 321 322 323 323 323 322 322 322 323 323 323 324 325 323 325 326 326 326 325 323 323 323 323 323 324 323 322 321 320 321 322 320 320
290 290 290 288 287 289 290 294 295 294 297 295 297 297 298 299 301 303 303 301 300 300 300 300 302 303 303 303 303 303 305 305 306 307 308 307 308 309 309 310 311 314 317 320 320 321 321 320 319 319 319 319 319 320 320 320 320 320 320 320 320 321 320 320 321 322 322 323 322 322 322 322 322 322 322 323 324 324 324 325 326 326 326 324 324 324 323 320 321 321 322 321 321 320 320 322 320
290 288 288 288 289 288 290 292 293 293 295 294 292 294 296 298 299 301 300 301 303 303 303 303 302 302 302 303 303 304 304 305 306 306 306 307 307 308 308 310 311 313 315 318 321 321 321 321 321 321 320 320 320 320 320 320 321 321 321 320 320 319 321 322 322 321 322 322 322 322 323 323 322 322 322 321 322 323 324 324 324 325 325 325 323 323 323 322 322 321 321 320 320 320 320 322 320
293 290 286 287 289 290 286 291 293 293 295 287 288 291 294 292 294 299 301 300 300 303 303 303 303 303 303 304 305 306 305 306 307 308 307 307 307 307 306 308 310 311 312 314 318 320 321 321 321 321 320 320 320 320 319 321 321 321 320 319 316 321 319 319 321 321 321 321 321 323 323 323 323 322 322 321 321 321 322 322 323 322 323 323 324 323 323 322 322 322 321 321 321 319 319 319 321
294 293 290 289 287 290 290 288 291 291 292 292 290 289 291 291 293 293 296 296 297 299 299 300 302 302 304 304 304 303 305 306 306 307 308 308 308 307 307 309 309 309 311 313 315 318 320 321 321 321 321 321 321 320 319 320 319 316 318 315 314 315 316 315 316 318 320 320 320 320 322 323 322 322 322 321 320 320 321 321 321 322 321 321 322 322 322 322 322 322 322 321 320 319 318 320 319
292 294 293 292 289 290 290 290 292 290 290 290 290 284 286 292 292 294 297 293 294 296 297 299 301 302 301 302 303 304 304 304 305 307 308 309 309 309 308 308 308 309 310 312 314 316 317 320 321 321 321 321 321 321 320 319 319 319 317 317 316 317 317 317 317 318 318 318 319 321 320 321 322 321 322 322 321 320 320 320 320 320 320 320 320 321 321 320 319 320 321 322 321 321 320 319 318
289 290 296 293 289 290 290 289 291 286 285 288 289 287 283 282 286 291 293 295 297 296 296 298 300 301 301 302 303 304 305 305 305 305 306 306 307 307 308 308 309 309 310 311 311 313 315 317 319 320 321 321 322 321 320 319 319 319 318 318 319 318 318 319 321 321 320 320 319 318 320 318 320 321 321 321 321 320 320 320 320 319 320 320 319 320 320 320 320 320 319 319 321 321 320 317 318
289 293 294 292 290 290 290 290 290 286 288 289 289 289 285 285 288 287 290 292 294 295 295 297 298 298 300 301 302 303 305 305 306 307 306 306 307 308 309 311 309 308 308 308 310 312 313 315 316 318 320 320 322 322 320 320 320 319 318 318 318 319 319 319 320 320 319 318 318 319 318 318 319 320 321 320 321 321 320 320 320 319 319 319 318 319 319 320 320 319 318 319 319 320 321 319 318
291 293 296 294 294 290 289 290 288 288 288 284 286 287 285 284 287 288 289 288 290 291 292 295 296 297 299 300 301 302 304 305 306 306 306 307 307 308 308 308 306 305 305 306 307 309 312 314 315 316 318 319 320 321 320 320 320 320 319 319 318 319 320 320 320 317 318 317 317 317 317 318 318 318 320 320 320 320 319 319 319 319 319 319 317 319 319 319 319 318 318 318 319 319 320 320 320
293 297 298 296 295 293 292 287 288 286 286 283 287 288 284 284 285 287 287 289 291 293 293 294 295 297 298 300 301 302 303 304 304 305 307 307 308 307 303 301 301 302 304 305 305 306 307 309 312 314 316 318 319 319 320 320 320 319 319 319 318 319 319 319 319 318 316 314 316 316 316 316 317 317 318 319 319 319 319 319 319 319 319 319 317 318 318 318 318 318 319 319 319 319 320 320 319
294 295 293 293 293 292 289 289 287 287 283 285 290 288 286 281 287 287 288 288 292 291 292 294 295 297 298 299 301 302 303 304 304 305 305 306 304 299 298 299 300 299 299 301 303 304 305 306 309 312 315 316 315 317 318 319 319 319 319 319 319 319 319 319 317 317 317 313 315 316 315 316 316 317 317 318 318 319 319 319 318 319 319 318 317 317 318 318 319 318 318 318 318 319 320 320 319
295 291 289 290 287 289 287 285 287 283 281 288 290 288 287 280 284 287 291 289 292 295 295 294 296 297 299 300 301 302 303 303 304 304 305 304 299 297 296 298 298 299 298 298 299 301 303 305 305 307 310 312 314 316 317 318 318 318 319 319 318 319 319 318 317 317 318 316 316 317 316 314 315 315 315 316 317 318 318 319 318 318 318 318 318 318 318 319 319 318 318 317 318 319 320 319 320
293 291 290 286 282 284 280 284 280 280 281 287 289 289 284 284 289 285 285 287 290 291 293 296 297 298 299 300 302 303 303 303 303 303 301 298 297 297 297 298 297 298 299 298 299 300 301 302 303 305 307 307 312 313 315 316 317 318 319 319 319 319 319 318 318 318 318 317 317 316 314 315 314 313 314 315 316 317 318 318 318 318 318 318 318 318 318 318 318 317 317 316 317 317 318 319 319
292 289 287 284 280 279 277 280 282 283 285 286 284 289 285 289 292 295 295 296 292 293 294 295 296 297 298 299 300 301 301 300 300 299 297 296 296 297 297 298 298 298 298 299 299 299 300 302 302 304 306 304 306 309 313 314 316 318 318 319 319 319 318 318 319 319 319 318 317 316 315 316 315 315 315 315 317 317 317 318 318 319 319 319 318 318 318 318 317 317 317 316 316 317 317 317 318
291 294 291 287 286 281 276 280 277 279 281 282 283 283 279 285 286 290 296 297 299 300 298 296 296 296 298 298 297 296 296 295 295 294 295 296 296 295 297 298 298 299 299 299 299 300 300 302 303 304 304 303 305 307 309 312 315 315 316 318 318 318 319 318 318 318 318 317 316 316 316 316 316 316 316 317 316 316 317 317 317 318 318 318 318 317 317 317 316 316 316 316 316 316 316 317 317
291 290 293 288 286 289 283 284 283 281 278 280 282 282 286 288 292 290 291 290 292 294 297 299 298 297 296 296 297 298 297 296 295 294 295 295 294 294 294 295 296 297 297 296 297 297 300 300 302 303 304 303 303 305 305 306 308 310 311 314 316 316 316 316 316 315 316 316 316 316 316 316 316 316 316 315 315 316 316 316 316 317 317 317 317 317 317 316 316 315 316 315 315 316 316 316 317
289 290 285 289 293 292 285 283 280 284 282 280 285 283 285 290 294 295 294 292 291 290 292 295 297 299 298 297 298 297 297 295 294 295 296 295 295 295 296 296 296 296 295 295 295 295 297 299 300 300 299 298 299 298 299 299 301 305 306 307 310 311 311 312 314 313 313 313 314 315 315 316 315 315 315 314 315 314 315 316 316 316 316 316 317 316 316 316 315 315 315 314 314 314 315 316 316
291 286 290 292 292 289 286 280 280 277 278 280 285 282 283 283 282 287 293 292 292 292 292 294 295 296 296 298 298 298 297 294 293 295 296 295 295 295 295 294 294 295 295 294 294 293 294 295 296 297 297 298 297 297 298 298 298 300 300 301 302 305 308 310 311 313 312 312 311 312 311 312 312 313 313 312 312 313 313 311 315 315 315 315 315 316 315 316 315 315 315 314 315 313 314 316 316
292 289 291 288 282 282 281 282 277 275 277 280 283 283 284 285 286 284 286 290 292 292 292 292 292 293 295 297 298 296 297 296 295 294 293 294 294 294 294 294 294 293 293 292 293 293 293 293 294 295 295 294 295 295 294 295 296 297 298 298 298 299 301 304 305 307 308 308 309 308 309 309 309 308 308 308 308 310 310 311 312 313 313 313 314 314 314 314 314 314 314 314 314 314 315 315 316
290 292 288 289 288 286 284 283 283 284 278 280 278 282 280 287 289 290 286 288 291 292 292 292 294 295 295 296 295 295 297 298 296 294 294 293 294 293 293 293 293 293 292 292 292 292 292 292 293 293 292 292 293 294 293 295 295 295 296 296 297 298 300 303 304 305 306 306 306 306 306 306 308 306 307 307 307 308 308 309 309 310 310 310 311 312 312 313 313 313 313 313 314 315 315 315 316
287 288 286 287 286 289 287 287 285 281 279 280 278 278 278 284 289 290 290 290 291 293 294 295 295 294 292 292 293 295 297 296 295 294 294 293 293 293 293 293 292 291 291 291 291 291 291 292 292 292 293 292 293 292 293 293 293 295 295 296 296 297 299 302 303 303 302 302 302 302 305 305 303 304 303 305 305 306 306 306 307 306 309 309 310 310 310 311 311 312 312 312 312 314 314 315 316
289 289 287 289 286 284 281 279 290 284 282 275 278 277 283 285 287 290 292 292 292 294 293 294 292 293 291 290 291 292 294 294 294 294 293 293 293 293 293 292 292 292 292 291 291 291 291 291 291 290 291 291 291 292 292 293 293 294 294 294 294 294 295 296 297 296 296 297 297 299 301 302 304 302 302 304 304 303 302 304 305 305 306 306 307 309 308 308 312 313 313 313 314 314 314 314 315
Wind_Speed
10 8 7 4 1 0 2 6 1 3 2 1 2 0 0 0 0 1 1 1 0 2 1 2 3 6 3 3 8 4 2 8 7 8 3 1 2 3 3 4 8 8 8 8 5 6 6 10 13 13 12 10 10 9 10 9 9 8 8 7 6 6 6 5 6 8 10 9 9 9 10 11 11 11 11 10 10 10 10 9 9 10 10 8 9 9 9 9 10 9 10 11 10 11 12 12 11
7 7 5 1 0 1 1 2 4 3 5 3 4 1 2 2 1 3 4 3 2 0 1 4 4 4 6 7 4 3 0 1 4 0 2 3 2 2 0 6 10 11 8 6 5 5 5 7 12 13 12 11 11 11 11 10 9 9 8 8 7 6 6 6 7 9 10 8 9 9 9 10 11 11 11 10 10 10 10 9 9 9 9 9 9 9 8 8 9 10 10 10 10 10 10 10 9
7 7 3 4 2 5 2 4 2 1 2 2 3 5 1 1 3 3 6 3 1 1 3 4 3 2 1 1 1 1 2 1 0 1 1 1 10 5 1 5 8 9 10 5 4 5 5 6 11 11 11 11 12 12 10 10 10 9 8 9 9 7 6 6 7 10 10 10 10 10 11 10 11 11 11 10 9 9 9 9 9 9 8 8 8 8 8 7 8 9 9 9 9 9 9 8 9
4 1 1 2 2 4 1 3 4 3 0 3 3 3 2 4 5 5 5 3 1 1 1 0 1 1 0 2 0 0 1 1 1 3 1 5 2 4 5 6 8 8 7 5 5 5 5 8 10 10 11 11 12 12 10 9 9 9 9 9 8 7 6 6 7 9 10 11 11 10 10 11 11 11 10 10 10 10 10 9 8 7 7 8 8 7 7 7 7 8 8 7 8 8 8 9 8
4 2 3 3 2 2 2 0 3 2 2 4 1 3 4 4 4 4 1 2 3 1 0 1 2 1 0 3 1 1 0 1 1 3 1 1 0 5 6 8 7 8 7 5 5 5 5 10 10 9 11 12 12 11 10 10 10 9 9 8 7 6 5 5 7 8 9 10 10 10 10 9 10 11 10 10 10 9 9 9 8 8 7 7 7 7 7 7 7 7 7 7 7 7 7 8 7
2 3 3 1 1 2 5 0 1 1 6 5 1 2 4 6 5 5 1 1 3 1 3 1 1 3 1 1 2 1 1 1 1 1 3 4 5 7 8 7 8 7 6 5 4 5 6 10 10 10 12 12 12 11 11 11 10 9 8 8 7 6 5 5 7 7 9 10 11 11 11 11 10 10 10 10 10 9 8 8 8 7 7 7 7 6 6 6 7 7 7 6 6 6 7 7 8
3 3 3 4 2 3 3 2 2 3 5 6 2 2 5 4 4 4 1 1 1 1 3 1 1 3 3 1 1 0 2 0 1 0 4 4 6 8 9 8 8 8 5 4 3 4 6 10 10 11 11 12 12 11 11 11 10 9 7 7 7 7 6 5 7 7 9 11 10 11 11 11 10 11 10 10 10 9 9 8 8 7 7 6 6 7 6 6 6 7 6 5 5 6 6 7 8
1 1 2 1 1 3 1 0 3 5 2 5 2 3 3 4 4 4 3 1 2 1 0 1 1 2 0 2 1 1 1 1 2 1 2 8 6 8 8 8 9 8 4 2 3 3 5 8 9 10 10 11 12 11 10 10 10 9 8 8 8 7 7 7 6 7 8 9 11 12 12 11 11 11 10 10 9 9 9 8 8 8 7 7 5 5 5 5 5 6 6 5 5 5 6 7 7
4 5 0 3 1 3 2 1 3 2 6 2 6 6 3 3 4 5 2 1 1 1 1 1 1 1 2 1 1 1 1 2 1 3 5 9 8 9 6 8 10 7 5 3 2 2 3 5 9 10 9 9 10 11 10 9 9 9 8 8 8 8 7 7 7 7 9 10 11 11 11 11 11 11 10 10 9 9 8 8 7 7 6 6 5 4 4 4 4 4 4 3 3 4 5 6 6
1 3 2 1 2 0 3 2 2 1 2 2 2 1 3 3 3 1 2 0 1 0 1 2 1 1 1 1 1 1 1 4 2 4 4 8 9 8 8 8 8 8 6 4 2 1 2 5 8 9 9 8 8 8 9 6 9 8 8 8 8 8 7 7 7 7 9 10 11 11 12 12 11 11 11 10 9 9 8 8 7 6 6 6 5 5 5 4 3 3 3 2 2 3 3 4 5
2 5 2 2 3 1 0 3 3 5 2 4 4 4 3 4 4 1 1 1 1 1 1 2 1 1 0 1 2 1 2 1 5 7 4 7 9 8 7 7 7 9 8 6 4 2 3 3 8 9 8 8 8 7 7 5 6 7 8 8 8 8 8 7 7 7 9 10 10 11 11 12 11 11 10 10 9 8 8 8 7 7 6 5 5 5 5 4 3 3 3 2 1 1 2 3 3
2 2 3 1 1 4 3 1 4 7 6 2 1 0 2 5 2 2 1 3 1 0 3 4 2 6 1 2 1 0 2 4 4 4 5 6 7 8 8 6 6 6 8 8 6 4 4 4 5 7 8 8 7 7 6 6 6 6 5 8 8 8 8 8 7 7 9 10 11 11 11 11 11 10 8 8 7 8 8 8 7 7 7 6 5 5 5 4 4 3 3 2 2 1 1 1 2
2 1 4 3 0 0 1 0 2 2 4 3 3 1 3 5 4 4 4 1 1 2 3 7 2 1 1 2 2 3 2 5 4 4 6 6 5 5 6 7 7 6 5 5 6 6 5 4 5 4 6 9 7 8 7 6 6 6 5 8 8 7 7 7 7 8 9 10 10 9 10 10 9 8 8 7 7 7 9 8 7 8 7 7 6 6 5 5 4 4 4 3 3 2 2 1 1
1 4 3 1 1 1 2 1 1 0 2 2 2 1 4 3 3 4 5 4 3 4 2 1 3 3 1 2 3 2 4 4 5 4 5 5 5 5 6 6 7 6 5 6 6 5 6 5 5 4 5 5 4 5 7 8 6 6 5 7 7 7 6 6 6 6 8 8 8 8 8 8 7 7 7 7 7 7 7 7 7 8 8 7 7 7 6 6 5 5 5 4 4 3 3 3 2
1 2 4 3 1 1 3 1 1 3 2 1 2 6 2 3 3 4 7 6 7 3 2 0 2 1 4 5 4 7 6 7 7 5 6 5 5 5 4 6 6 5 5 6 6 6 6 5 5 4 4 5 4 4 4 5 7 6 6 7 6 6 7 7 7 5 7 7 8 8 8 8 7 7 7 7 7 7 6 7 7 6 8 8 8 8 7 7 6 6 5 5 5 5 5 4 4
3 5 2 1 1 1 2 1 1 4 3 3 1 2 6 0 2 4 4 2 1 1 0 2 1 1 0 5 0 4 6 9 7 7 7 6 4 4 4 4 5 5 6 6 6 6 6 6 5 5 4 5 5 4 4 4 5 6 6 7 6 6 6 7 8 6 7 7 8 9 9 7 6 5 7 6 7 7 7 6 6 6 6 8 8 8 8 8 7 7 7 7 6 6 6 5 4
2 3 0 2 2 2 2 1 4 1 3 3 3 4 6 3 0 1 2 1 3 1 2 0 1 1 2 3 2 3 6 8 8 9 8 6 5 4 3 2 4 3 4 6 6 7 6 6 6 5 4 5 4 4 3 3 3 5 4 6 8 7 6 6 7 8 7 6 7 8 8 6 4 4 4 4 6 4 6 7 7 6 6 6 7 7 8 8 8 8 8 8 8 8 6 5 4
1 1 4 1 4 3 4 4 7 0 0 1 2 5 5 2 1 1 2 4 2 1 0 3 1 2 2 4 2 4 6 11 10 11 8 7 6 6 5 5 5 7 7 7 6 6 7 6 7 7 5 5 6 5 4 4 3 5 4 3 4 6 7 5 6 5 5 4 6 6 5 4 4 3 3 5 4 4 5 7 7 7 7 6 6 7 7 7 7 9 9 9 9 7 6 3 3
3 1 2 7 5 5 5 4 5 1 4 3 2 3 4 5 7 2 2 1 1 1 2 1 2 2 2 2 4 8 8 9 10 10 11 12 10 11 9 7 8 7 8 7 7 7 6 6 7 7 7 6 6 6 4 4 6 5 5 6 4 5 5 6 4 5 4 5 4 4 4 4 4 4 3 4 4 6 5 7 8 8 8 7 7 7 7 7 7 7 8 8 8 8 5 3 3
3 4 5 6 7 4 4 3 3 6 1 1 2 3 4 1 5 1 2 3 1 6 5 1 2 5 2 0 4 6 6 7 7 10 12 11 10 11 11 10 9 10 9 8 8 5 6 7 7 7 8 8 7 6 5 5 6 6 4 5 5 4 4 4 5 5 5 5 5 5 4 4 4 3 4 7 7 3 4 6 7 8 8 7 8 6 6 6 7 7 7 6 5 3 2 3 3
1 2 4 4 5 2 4 6 7 4 4 1 3 1 2 1 4 3 4 5 3 6 6 8 9 9 6 5 6 6 7 8 6 7 8 8 8 7 9 11 12 10 7 5 5 8 9 8 7 7 7 7 8 7 7 6 5 4 5 7 6 5 5 5 5 5 7 5 6 4 5 5 4 4 4 4 4 4 3 4 4 3 3 4 5 4 3 3 3 3 3 3 3 2 2 2 2
4 7 5 3 2 3 4 3 5 2 3 2 1 5 4 2 1 3 8 7 6 8 9 9 8 6 10 10 8 5 7 9 8 8 10 11 12 11 7 6 3 3 4 6 10 8 9 8 8 7 7 7 8 7 7 7 7 7 6 6 6 6 5 6 5 5 5 6 6 5 5 5 6 5 4 5 5 4 5 5 4 4 3 4 3 3 3 3 4 3 3 3 3 2 3 3 2
5 3 2 4 4 3 1 2 3 3 2 2 2 2 3 4 1 2 7 8 5 5 3 6 7 5 6 7 10 8 8 10 11 12 11 10 10 10 9 7 8 7 7 8 6 6 7 7 8 7 8 8 8 6 6 6 8 6 6 6 7 7 6 6 6 6 6 6 7 5 5 5 6 5 5 5 6 5 5 5 5 4 5 4 3 3 4 3 3 4 3 4 3 3 4 4 3
3 8 3 6 5 6 4 1 5 2 5 0 2 0 3 2 4 1 4 7 6 1 2 4 3 7 8 10 10 14 14 13 15 13 12 14 13 14 10 9 7 4 5 8 7 7 7 9 9 8 8 8 7 7 7 7 7 7 7 7 7 6 6 7 6 6 6 6 5 7 5 4 5 6 6 6 6 6 6 5 5 5 5 5 3 4 4 4 4 4 3 3 4 4 5 5 4
7 6 3 2 3 5 5 4 3 1 3 0 2 3 4 8 3 4 5 9 7 1 2 3 6 7 6 8 11 9 9 8 9 9 6 6 5 4 4 5 5 5 9 9 7 7 8 8 7 9 8 8 7 7 8 7 7 7 7 7 7 6 7 7 6 6 6 6 6 5 6 7 6 6 6 6 5 7 6 6 5 6 5 5 4 5 5 5 5 4 5 5 4 5 4 5 6
5 7 3 3 4 4 4 3 5 5 2 1 1 5 3 3 1 3 6 6 2 2 4 4 5 7 8 10 11 11 11 13 10 8 13 7 4 5 9 8 6 9 12 8 8 8 6 7 9 11 10 9 8 6 7 7 7 8 8 8 7 7 7 7 7 7 6 7 7 7 7 8 7 6 7 6 7 7 6 6 6 6 6 6 6 6 5 5 6 5 5 5 6 6 6 6 5
1 5 6 5 5 4 0 5 5 1 2 2 5 4 3 1 2 4 3 4 3 4 4 2 6 8 8 7 8 8 10 12 14 8 2 5 7 10 10 7 10 12 7 10 9 8 7 7 9 10 10 8 7 8 8 8 7 8 8 7 7 8 7 7 7 7 7 7 7 8 8 9 8 8 8 7 7 7 6 6 6 5 6 6 6 7 5 6 5 5 5 5 6 6 6 5 5
1 3 1 5 7 3 0 0 4 1 3 6 5 6 0 1 1 6 2 3 5 6 3 4 4 5 7 7 8 8 8 9 3 3 11 9 12 12 12 11 14 10 10 13 10 6 7 9 9 9 10 9 9 9 8 8 9 8 8 7 9 8 8 8 8 7 8 7 7 8 9 8 8 8 7 7 7 7 7 7 6 7 7 5 5 6 7 7 7 7 7 6 7 6 6 5 5
2 1 3 4 4 8 4 6 4 4 4 5 4 1 4 1 6 7 5 2 4 5 5 4 5 5 5 5 5 5 11 6 4 6 12 12 10 8 13 13 11 10 10 10 8 6 9 9 9 9 9 9 10 10 9 9 8 8 8 9 8 8 8 8 9 8 8 8 8 8 8 9 8 8 8 8 7 7 7 7 7 7 7 6 5 6 7 6 6 6 6 6 7 6 6 6 5
1 1 2 2 2 7 12 3 2 5 3 7 5 7 8 9 10 8 3 3 3 3 4 5 5 6 5 5 6 7 6 5 8 12 12 11 9 9 11 10 9 10 8 7 6 10 8 6 7 7 9 11 11 10 9 9 8 8 8 7 7 7 7 8 9 8 8 8 8 9 9 9 8 8 8 8 7 7 7 8 8 8 7 7 7 5 6 6 6 6 6 6 6 6 6 6 6
5 2 1 5 2 8 4 8 6 7 2 7 5 11 5 6 9 9 4 4 7 6 7 7 7 6 6 6 6 8 10 9 13 13 12 10 8 7 10 8 8 9 7 7 11 12 8 9 7 8 9 11 11 12 11 10 8 8 8 7 7 8 7 8 8 8 8 8 8 8 9 9 9 9 8 8 8 8 8 8 8 7 6 7 7 7 7 5 6 7 5 6 6 6 6 7 7
1 4 8 3 10 3 2 3 12 13 1 5 6 10 10 6 9 7 6 4 5 7 8 7 7 7 7 6 8 8 10 9 11 11 11 11 9 9 10 12 9 8 11 12 9 6 10 9 9 10 9 11 12 12 11 11 10 9 8 8 7 8 8 8 8 8 8 7 8 8 9 9 9 9 9 8 9 8 8 8 8 7 7 7 7 6 7 7 7 7 6 6 7 8 7 8 6
2 8 3 8 5 7 3 4 8 13 5 2 13 7 1 6 10 8 4 7 5 8 9 7 7 8 7 7 7 7 7 7 8 11 13 11 10 11 11 12 11 13 11 10 11 8 9 10 10 11 12 12 11 11 11 10 9 9 9 8 8 8 9 9 8 7 7 8 7 8 8 8 9 9 9 9 9 9 9 9 8 7 6 7 7 6 7 7 7 7 7 6 7 8 7 9 7
7 5 10 4 11 3 8 2 1 5 8 7 5 6 4 1 4 8 4 7 8 8 10 10 9 8 8 7 6 7 8 8 10 12 13 12 11 12 12 11 11 10 10 11 10 11 12 9 10 11 11 10 10 11 11 10 9 8 8 8 7 9 9 8 8 7 8 8 8 9 8 8 8 9 9 9 9 9 9 8 7 7 6 7 7 7 7 6 6 7 8 6 7 7 8 8 9
13 10 6 6 2 7 6 4 3 5 4 7 5 11 10 6 4 4 7 4 7 11 12 12 11 8 6 6 7 8 8 8 13 12 10 9 11 11 11 11 10 9 9 11 10 10 9 9 8 10 10 10 9 9 8 7 7 6 6 6 7 8 8 8 7 8 8 7 8 8 8 8 8 9 9 9 9 9 9 9 8 7 6 7 7 7 7 7 6 6 8 8 6 8 9 8 8
7 10 14 9 10 6 9 4 2 10 6 9 9 12 11 10 11 11 6 4 7 11 9 8 6 5 6 6 7 7 8 12 12 10 5 6 8 9 9 8 9 9 9 8 9 9 10 9 8 8 9 9 7 6 6 6 6 7 8 5 7 9 9 8 8 9 7 8 8 7 8 8 8 8 9 9 10 10 9 9 9 7 6 7 8 9 8 7 8 8 9 9 9 7 7 7 6
6 4 4 4 6 4 2 4 2 3 4 12 15 14 9 13 14 14 12 4 5 6 7 8 8 8 8 8 9 10 9 13 11 4 6 7 8 8 8 7 8 7 8 9 8 10 12 12 10 12 9 9 9 8 8 8 9 7 6 10 12 10 9 8 8 8 8 8 7 8 8 9 9 9 9 9 11 10 10 9 8 8 8 8 8 10 9 9 9 8 8 7 9 10 8 6 6
1 3 5 5 4 8 4 5 4 3 7 7 9 9 14 13 10 14 10 7 11 10 10 10 11 11 10 9 9 9 11 6 7 8 8 6 7 7 5 6 6 8 11 10 11 14 13 12 11 12 7 9 10 11 10 9 10 10 10 11 10 9 9 9 10 8 8 7 8 8 9 10 10 11 10 11 10 10 10 9 9 9 8 8 9 9 9 8 8 8 6 6 6 9 9 5 5
2 1 2 4 7 1 2 3 2 0 3 9 1 9 13 10 9 9 9 12 10 10 12 12 13 12 9 8 9 10 7 10 8 7 8 7 8 7 6 7 8 11 10 10 13 12 10 9 11 9 8 9 10 10 9 11 10 10 10 7 7 5 5 6 6 5 6 7 8 10 11 10 10 11 11 10 10 10 10 9 10 8 9 8 8 9 8 9 8 9 8 8 7 6 8 5 5
7 6 4 8 3 7 6 5 1 1 6 1 3 8 9 5 6 11 13 10 7 8 10 10 7 9 11 11 12 12 11 10 12 11 10 8 7 7 5 7 10 8 8 7 9 11 9 8 9 9 10 10 9 10 12 12 9 7 6 4 3 6 5 4 5 5 6 7 11 11 9 11 13 10 9 9 9 9 10 10 8 8 9 8 9 9 9 10 9 8 8 9 8 9 6 5 7
10 9 7 7 2 7 7 3 3 1 2 1 3 8 9 6 10 7 9 7 6 8 7 8 10 8 9 8 8 8 11 10 11 10 9 8 7 8 9 10 7 7 9 10 10 9 7 10 11 11 10 10 9 9 11 8 6 5 5 2 1 0 1 2 3 6 8 10 8 8 14 11 9 10 9 9 9 10 9 9 9 8 8 8 8 9 9 10 9 9 9 9 9 9 10 7 5
11 12 13 9 2 4 1 0 3 2 6 3 4 4 12 9 12 14 9 3 7 6 9 13 14 12 9 12 13 11 9 8 10 12 12 11 9 7 6 7 8 9 9 10 8 7 6 8 9 8 7 7 9 10 10 8 9 9 7 7 7 8 9 7 10 13 10 10 13 9 4 7 9 8 9 9 10 9 9 10 8 8 8 8 9 9 9 8 8 9 10 9 10 10 10 8 7
10 10 13 6 3 4 4 3 3 4 8 4 1 11 11 2 5 9 8 11 18 6 10 15 13 12 10 11 11 12 12 12 10 11 12 11 12 10 11 10 10 9 9 5 4 5 7 8 7 8 9 9 10 9 9 9 9 9 12 13 12 11 12 10 10 8 7 7 5 6 7 5 8 9 9 9 9 10 9 9 9 9 9 9 8 8 9 10 9 9 7 9 10 8 8 10 10
13 1 7 6 7 7 5 6 7 3 0 2 1 4 10 13 9 4 7 12 15 12 14 14 11 10 11 11 11 12 13 13 13 14 14 12 12 13 15 16 8 6 5 4 6 6 7 9 7 8 8 9 8 7 8 10 11 10 10 10 10 11 11 12 9 7 4 5 6 8 6 7 7 8 8 9 9 9 9 9 9 9 9 9 8 9 11 9 7 7 8 9 8 8 9 10 10
4 6 13 13 12 3 4 5 5 3 1 5 1 2 5 10 6 2 7 7 12 15 14 14 13 12 13 13 13 13 15 15 14 13 12 13 15 16 13 10 5 4 4 5 5 5 6 7 7 6 8 8 8 8 10 11 11 11 11 10 9 9 9 9 6 4 6 6 7 6 6 7 7 7 8 8 8 9 9 9 9 9 10 10 8 9 9 8 9 8 8 8 9 9 9 9 9
5 9 8 5 7 5 8 4 5 1 3 10 7 4 8 16 6 5 3 8 17 17 12 13 12 13 15 15 16 15 12 10 11 13 15 15 14 9 3 3 3 4 4 4 5 5 6 5 6 7 9 8 7 6 8 9 10 9 9 10 12 11 8 8 6 6 6 5 6 6 6 6 6 6 7 7 8 8 9 9 9 10 11 10 8 9 8 8 9 9 10 10 9 10 8 9 10
4 6 5 3 6 8 2 3 3 0 9 11 10 8 8 13 11 10 10 10 12 6 4 7 5 9 13 12 13 13 12 12 12 13 14 15 5 1 2 5 5 4 4 5 6 6 6 6 7 8 10 7 5 6 7 9 9 8 9 10 11 12 11 8 6 7 6 4 7 7 6 7 6 7 6 7 8 8 9 9 9 10 9 8 8 8 10 10 9 9 8 8 9 10 9 9 9
11 5 6 6 1 3 3 1 3 11 13 11 13 13 11 14 12 6 7 4 7 11 13 8 9 12 12 12 13 13 12 11 12 12 13 9 5 4 3 5 5 6 5 5 5 5 6 7 6 8 8 7 6 7 8 9 9 9 9 10 10 11 9 7 8 9 8 8 8 8 6 4 6 6 5 6 7 8 8 8 9 8 8 8 9 9 9 8 8 7 7 7 8 9 9 8 9
1 6 9 12 5 5 7 5 11 13 13 7 8 10 4 19 20 2 5 6 6 6 7 9 11 13 14 15 15 14 13 13 12 10 7 5 5 4 5 5 5 6 6 6 8 7 7 6 7 8 10 6 7 6 8 9 8 9 10 11 11 10 9 9 9 9 8 8 8 7 6 7 5 4 7 7 8 9 8 8 8 9 9 9 10 8 9 8 8 7 7 8 8 8 9 10 9
6 10 11 10 8 8 8 8 4 4 4 1 4 10 12 5 16 15 22 15 6 7 8 8 8 9 9 9 9 9 8 7 6 6 5 5 4 4 4 5 5 6 6 7 7 6 6 6 6 8 10 5 6 6 8 8 10 10 9 10 10 9 9 9 9 10 9 7 7 7 7 7 7 8 7 9 8 8 8 9 9 9 9 8 8 9 9 8 8 8 8 8 9 9 8 9 10
12 5 11 11 8 4 7 7 9 6 4 2 2 5 5 9 9 1 12 14 19 21 13 9 7 9 10 9 6 6 6 6 5 5 4 4 4 4 5 4 5 6 5 6 4 4 4 5 5 7 5 4 5 7 6 8 8 8 7 8 8 7 8 7 8 7 6 6 6 6 7 6 7 7 8 7 5 7 8 8 8 8 8 8 7 7 7 7 7 7 7 9 8 7 8 9 9
5 4 3 6 13 2 5 2 5 4 2 3 5 8 5 12 4 3 4 3 4 5 11 17 16 11 8 10 11 9 6 5 3 3 3 4 4 3 3 2 1 1 1 1 2 3 0 1 2 2 3 1 1 1 2 3 4 3 4 5 7 6 6 6 6 5 6 5 6 6 6 6 6 6 5 5 6 6 7 7 7 8 7 7 7 7 7 6 7 7 7 7 8 6 8 9 9
5 4 9 9 5 9 1 4 0 2 2 9 4 5 7 8 16 11 11 1 5 5 6 9 14 18 15 14 12 7 7 4 3 4 5 3 1 1 0 0 0 1 2 1 2 3 3 1 4 4 4 4 3 2 2 1 1 1 1 1 2 3 4 5 6 4 5 4 5 6 6 6 5 5 6 4 5 5 6 6 6 7 7 7 6 6 7 6 6 7 7 7 8 6 7 9 8
2 10 7 4 4 4 5 8 3 4 6 5 10 13 8 5 13 2 9 12 10 6 8 11 12 11 11 12 10 10 6 4 4 2 1 1 1 1 1 1 1 1 0 1 3 3 3 1 3 4 3 4 3 3 3 3 2 2 1 0 0 2 4 4 5 5 5 4 4 5 4 5 5 4 3 4 4 4 5 5 6 6 6 5 7 6 6 6 6 6 7 7 7 5 7 7 7
9 4 4 6 6 9 1 0 10 3 7 6 8 10 11 11 14 0 2 10 10 7 8 7 9 9 12 14 10 5 1 1 1 2 3 2 2 1 1 1 0 1 1 2 3 2 2 2 5 5 4 3 3 3 2 3 3 2 2 3 2 2 1 1 2 2 1 3 3 3 3 3 3 3 3 4 4 4 4 4 4 5 4 5 4 5 5 5 6 6 6 6 6 6 7 8 7
1 2 2 1 3 5 9 9 2 4 10 6 7 5 9 9 9 9 5 6 8 8 7 8 12 12 11 9 5 4 5 5 5 4 4 3 2 1 1 1 1 2 2 3 2 1 2 3 5 4 3 3 3 4 3 3 3 3 4 4 4 3 3 2 1 1 0 0 1 1 2 3 3 2 3 3 3 4 4 4 4 4 4 4 4 5 4 5 5 6 6 6 6 6 7 8 8
5 7 3 3 2 2 3 2 9 5 4 10 8 10 3 8 5 6 8 7 9 11 11 10 11 9 5 5 5 4 2 2 3 3 4 3 2 2 1 1 1 2 2 2 3 2 1 3 5 4 4 3 4 3 3 3 3 4 5 5 4 4 5 4 5 5 5 4 4 3 3 2 1 2 2 1 2 3 3 3 3 3 4 4 4 4 4 4 5 6 6 6 5 6 7 7 7
9 10 11 10 8 8 5 6 2 3 7 4 7 13 1 2 1 4 8 5 8 9 6 7 4 1 3 3 3 2 1 1 3 3 3 3 3 2 1 1 1 1 3 3 2 2 4 5 4 4 4 4 3 4 3 3 4 4 6 4 4 4 4 5 6 5 5 4 4 3 3 3 4 3 3 3 3 2 2 2 2 2 3 3 3 3 3 3 4 5 5 5 5 6 6 7 7
Wind_Direction
324 330 321 326 62 99 47 2 122 317 45 267 346 68 276 142 197 86 190 19 87 250 203 78 154 139 169 206 185 196 214 135 200 131 214 237 274 176 159 126 120 131 138 142 150 152 147 145 142 138 142 145 146 146 144 142 147 150 149 146 144 141 137 135 130 129 126 134 130 130 118 120 116 113 111 110 113 112 113 111 110 104 101 97 96 96 97 100 108 104 104 103 102 99 92 92 82
316 327 318 348 303 50 299 115 100 352 40 25 241 91 247 296 62 210 173 189 206 214 199 126 102 109 68 59 109 117 100 265 173 178 269 242 81 107 146 137 140 141 141 140 145 139 140 148 144 145 146 153 154 151 149 149 150 153 152 151 150 150 144 142 134 129 132 132 135 120 121 124 119 114 114 115 118 118 117 118 110 113 118 120 114 109 100 104 114 111 104 102 103 100 102 92 80
326 340 359 20 36 69 83 35 312 74 52 295 276 210 332 166 204 209 205 205 239 149 110 101 105 60 20 336 12 70 227 35 276 335 230 308 131 211 171 142 139 138 141 138 133 137 138 150 147 152 153 154 158 154 152 153 155 162 164 156 155 153 147 150 135 137 139 143 136 141 138 129 121 119 120 120 121 119 113 115 119 118 115 105 105 109 112 118 117 119 111 106 108 109 98 83 73
321 45 2 42 301 33 51 22 90 124 261 212 304 275 192 188 223 203 227 239 243 82 344 201 106 238 117 44 249 82 321 1 196 146 136 167 209 133 140 140 134 137 138 137 136 140 140 149 145 149 154 156 158 157 156 161 157 161 151 150 152 150 152 151 137 140 146 144 146 144 134 132 126 127 124 123 124 123 122 119 122 116 114 113 115 117 119 121 121 122 118 114 111 108 98 78 71
354 328 68 98 96 15 103 108 133 104 315 205 249 281 258 210 213 204 273 240 252 181 273 165 91 338 187 120 169 106 280 255 308 183 160 258 132 133 136 135 137 143 149 145 143 142 146 148 145 146 150 159 159 159 161 166 152 151 148 152 153 150 154 156 139 147 145 145 142 135 136 136 132 128 129 129 129 129 130 132 132 131 125 127 131 131 128 127 128 131 128 124 120 110 92 83 78
54 33 356 73 59 158 57 52 344 312 225 153 196 247 226 218 184 196 212 295 250 205 204 192 168 198 27 324 164 85 203 38 200 240 151 217 152 135 140 139 142 149 155 146 143 145 152 152 150 149 156 160 159 161 165 161 152 153 153 151 157 151 148 141 141 147 147 148 150 145 143 144 138 134 133 135 133 134 134 132 131 133 137 136 134 125 128 129 137 140 136 132 123 110 95 89 80
336 31 359 24 35 47 170 146 243 212 276 162 220 248 227 212 213 124 219 80 289 13 141 233 103 100 76 294 16 233 202 152 115 233 170 150 140 136 140 143 146 157 161 150 148 147 156 158 155 152 158 162 161 161 158 157 154 154 158 153 155 152 144 147 152 158 155 152 151 149 149 148 145 138 138 139 139 141 142 140 140 141 145 146 142 139 138 139 143 146 140 134 129 113 102 89 80
93 65 322 103 255 39 50 167 251 156 268 167 220 249 262 202 150 131 190 99 230 173 38 276 280 103 243 87 172 266 339 215 238 310 163 126 134 137 147 144 151 158 161 140 149 154 163 162 158 154 159 165 165 164 164 166 157 156 158 158 156 156 154 158 153 160 159 156 157 155 158 152 148 143 144 145 146 147 149 148 150 151 153 154 150 149 142 143 147 151 149 138 130 115 95 86 84
354 91 221 65 52 36 46 335 267 238 283 280 279 225 227 172 137 122 185 262 309 279 244 222 268 93 237 58 183 257 289 315 318 157 143 130 139 143 147 151 157 148 135 129 134 157 167 170 162 157 159 163 169 171 169 174 155 159 164 162 158 158 160 161 161 167 164 167 160 160 157 159 153 151 149 151 152 152 153 153 155 156 155 157 159 157 156 158 151 151 147 126 111 97 94 91 85
38 46 314 108 140 315 0 299 37 201 235 251 247 239 167 167 123 101 163 75 204 140 245 326 141 91 130 164 319 3 296 320 107 97 148 141 141 142 147 155 153 143 135 133 138 154 165 174 165 159 160 161 169 177 178 181 158 163 169 168 168 163 163 164 162 174 171 168 166 165 163 163 163 159 158 156 158 157 156 159 158 162 164 167 174 176 179 170 172 168 151 138 123 109 105 97 87
352 12 137 72 22 70 170 269 258 313 279 312 296 228 199 128 119 129 162 205 7 157 304 234 29 144 75 262 204 248 319 146 139 163 169 147 142 145 146 149 155 156 152 151 158 160 176 166 163 163 159 159 171 177 182 196 166 179 175 173 178 171 170 167 163 172 175 174 170 167 167 167 171 166 166 165 162 162 164 163 165 165 171 175 185 186 187 191 193 194 179 171 157 141 125 111 92
328 17 11 105 179 161 227 177 280 280 294 328 197 308 195 126 102 124 199 135 235 253 183 143 226 147 68 331 299 272 328 156 189 155 152 143 145 148 143 141 150 162 164 160 160 169 171 172 161 165 162 162 167 179 182 201 181 182 180 177 184 181 179 171 168 174 176 178 174 171 172 173 174 173 170 167 163 167 171 172 170 172 175 180 187 197 197 205 207 215 210 198 203 206 184 146 113
89 103 77 88 232 173 181 216 258 284 332 277 176 214 135 111 190 195 173 156 150 140 290 208 139 98 182 193 253 322 132 213 176 160 146 145 144 139 139 143 153 155 161 161 159 169 171 173 170 169 173 171 172 181 180 187 182 185 189 184 182 190 187 174 174 176 179 179 176 176 176 178 183 177 170 169 168 173 180 177 176 179 181 187 192 197 204 207 217 223 231 227 230 239 250 240 206
120 184 124 276 61 130 166 240 8 199 278 244 270 141 177 144 240 168 138 152 217 176 237 212 137 132 125 8 307 310 238 197 154 160 139 134 131 135 144 148 150 158 166 164 172 174 175 176 175 176 178 176 178 184 179 179 179 191 192 188 192 191 190 183 179 181 174 179 177 178 180 188 188 177 175 170 175 181 184 180 183 187 192 190 198 202 207 211 219 230 236 241 245 251 255 258 263
251 136 83 117 117 52 236 122 195 138 249 210 184 140 189 256 114 138 166 166 236 210 330 229 175 110 237 151 275 221 193 177 147 146 128 124 128 138 143 151 154 160 168 181 177 172 183 176 179 176 181 179 182 182 184 187 185 197 191 194 201 199 195 187 185 182 178 182 178 178 186 190 196 187 182 180 182 187 187 184 190 195 203 202 203 208 211 216 223 230 238 246 252 255 257 260 267
145 84 79 138 247 146 269 199 46 99 258 189 278 188 149 222 178 127 241 153 231 354 76 203 45 208 226 167 226 265 171 145 142 133 125 122 120 119 137 151 158 172 180 184 185 190 179 178 181 181 181 186 184 185 187 192 197 198 198 200 199 203 207 194 186 186 185 191 185 185 188 194 199 198 192 189 191 193 195 188 201 202 215 217 214 214 217 220 226 230 237 242 248 253 258 261 266
75 80 339 44 248 159 250 176 151 232 252 265 282 154 162 215 222 239 107 131 128 211 358 220 202 8 194 215 287 275 138 121 126 127 123 130 135 138 136 142 158 184 200 204 192 190 185 182 183 178 187 186 184 181 184 192 204 204 205 212 203 198 202 206 193 186 189 199 195 192 194 193 196 198 202 196 201 201 204 200 207 214 219 225 223 224 224 223 227 230 236 240 244 250 254 259 262
69 146 119 196 203 144 213 185 192 171 239 291 214 197 145 204 174 199 129 39 84 349 223 303 297 261 237 269 301 119 134 132 143 143 154 154 161 165 181 192 176 195 196 204 214 199 187 192 184 183 184 189 181 179 184 198 192 208 208 207 214 201 200 201 204 196 188 189 205 198 196 195 193 199 203 206 205 211 215 213 213 220 224 227 230 231 233 232 229 231 236 241 244 247 246 256 282
128 115 121 226 178 238 161 201 203 124 263 237 209 151 168 212 148 216 138 277 80 154 266 11 303 294 351 16 99 128 143 140 154 160 164 169 177 185 183 189 199 195 206 204 207 201 198 192 189 187 188 187 181 182 180 187 199 204 210 210 213 214 203 203 190 200 179 193 165 199 198 196 195 198 203 210 206 215 216 219 223 225 228 230 232 233 234 241 244 241 246 248 242 239 243 250 260
220 126 220 242 208 236 216 209 217 199 188 255 196 207 169 217 154 120 193 173 93 193 208 312 252 241 232 332 130 143 151 155 165 167 177 183 187 185 188 197 202 210 206 202 197 198 196 198 196 193 190 188 184 187 184 189 197 202 206 205 214 208 208 194 199 187 199 165 180 201 197 197 202 200 208 220 223 219 231 237 239 244 247 246 246 245 250 253 257 259 261 262 274 293 280 274 270
248 128 204 224 200 181 258 192 239 236 175 193 205 82 170 225 199 155 165 110 254 263 234 183 205 216 194 189 162 162 162 169 181 183 186 193 199 201 199 199 199 205 204 181 193 203 200 198 195 200 195 193 189 190 188 192 190 192 206 210 211 211 217 211 212 206 205 189 207 205 198 195 207 210 205 215 220 215 224 238 243 243 250 255 254 255 261 271 288 295 302 305 308 301 302 277 284
119 206 202 176 134 190 247 194 203 158 160 113 107 128 215 89 85 132 151 166 217 211 230 215 217 181 158 173 183 167 176 182 189 190 197 196 197 203 205 215 220 188 168 192 209 203 203 200 197 196 195 200 199 192 194 190 188 202 203 201 206 211 213 201 211 208 211 211 216 213 197 199 207 213 211 219 226 215 218 221 227 227 238 247 243 247 251 254 267 264 277 284 284 278 265 272 264
212 270 234 211 196 167 255 172 202 156 116 126 134 232 90 161 189 197 176 189 229 218 219 216 213 182 170 153 151 175 185 193 197 202 199 203 209 212 210 205 197 199 195 216 206 211 203 201 201 193 201 200 205 200 192 191 204 203 204 204 207 214 209 213 208 212 219 218 214 217 210 206 207 215 220 221 226 222 227 220 220 215 230 233 231 233 246 245 248 254 254 258 266 267 264 261 263
227 227 173 220 203 217 214 217 124 131 116 220 212 47 170 157 198 157 195 240 227 225 257 246 178 133 142 151 182 180 190 191 204 207 202 206 203 208 205 204 208 197 200 218 210 208 202 206 201 197 205 200 203 199 197 200 205 205 206 210 217 216 214 218 218 215 218 223 221 210 227 227 212 215 225 227 225 225 231 221 218 222 225 230 218 216 235 240 238 244 253 263 265 259 263 260 257
211 240 197 250 180 233 229 239 250 211 249 289 106 155 234 179 192 118 241 242 253 343 62 98 128 133 152 170 181 192 195 208 219 219 228 232 229 237 239 228 212 204 223 216 212 208 211 205 197 206 207 206 203 195 206 204 204 206 207 211 216 209 220 219 216 219 228 225 230 218 205 229 224 217 222 227 228 230 227 223 215 220 221 227 211 225 217 232 233 224 230 240 245 256 255 259 257
211 229 168 218 207 223 223 220 258 242 263 157 130 244 282 220 71 197 231 247 246 124 72 110 122 138 169 190 193 190 197 205 209 212 217 213 221 221 231 219 212 218 221 218 209 215 206 194 199 206 206 204 200 194 210 206 206 210 210 213 214 211 221 220 215 217 220 224 227 226 215 219 231 225 221 221 225 232 229 229 228 221 219 215 214 230 212 224 236 226 224 226 231 242 249 251 250
200 229 212 214 238 230 92 187 237 244 199 162 191 247 260 9 98 263 262 219 135 78 94 120 149 176 191 195 201 209 202 209 206 209 201 217 223 222 230 219 220 227 213 226 218 214 203 195 206 204 206 203 195 202 203 210 203 212 211 211 212 217 217 218 220 220 220 220 223 221 224 221 224 227 220 218 222 227 228 230 233 227 224 212 209 224 214 217 225 234 232 230 230 237 243 240 237
318 214 294 279 285 299 110 283 247 105 269 183 180 231 214 310 76 222 245 157 177 138 145 164 189 198 202 210 207 213 222 229 214 181 212 206 217 215 221 215 224 221 214 226 220 206 201 208 209 206 204 201 201 207 204 208 209 209 208 206 212 215 211 217 219 222 222 221 218 219 220 221 220 229 226 218 220 223 227 230 234 233 236 226 214 223 224 220 225 230 232 239 242 238 241 234 227
284 150 238 281 286 280 209 207 217 160 246 155 166 321 276 197 221 233 232 125 173 159 172 197 209 218 220 219 222 217 224 218 200 219 225 221 222 215 224 221 221 218 226 227 219 204 212 207 210 210 202 203 205 208 207 210 210 209 207 211 213 207 211 215 219 219 223 223 221 220 220 221 218 224 229 231 224 227 229 232 234 235 237 235 227 223 228 225 225 227 234 235 237 232 232 239 231
95 46 148 323 274 258 238 180 125 148 240 145 142 248 214 224 230 242 207 132 128 141 201 213 222 224 227 220 221 232 234 216 215 223 227 225 223 220 229 229 218 222 225 221 211 221 211 210 205 207 203 206 208 211 211 210 210 211 210 213 212 209 212 214 220 220 220 222 221 223 223 223 223 224 226 230 229 230 231 233 235 236 233 234 235 227 227 223 229 228 231 226 235 235 239 238 240
193 227 83 211 146 247 240 183 168 179 203 172 155 240 210 241 236 235 224 154 159 196 219 214 220 225 224 221 223 228 234 217 224 228 231 231 229 228 236 240 224 224 228 222 216 221 206 209 198 211 202 208 207 212 212 215 208 210 209 211 211 210 213 217 217 218 218 217 217 222 221 223 224 225 224 228 231 231 234 236 235 236 233 230 232 229 230 229 230 234 220 231 234 235 241 242 237
246 144 232 241 203 289 286 198 162 192 238 173 140 250 230 233 249 238 221 166 173 211 221 223 220 224 225 223 226 232 238 228 237 243 239 235 225 230 228 235 223 222 220 225 227 213 218 212 203 211 203 209 210 211 213 214 213 210 210 210 213 210 216 219 216 216 215 214 215 219 217 219 220 222 223 222 231 229 232 237 236 234 230 231 231 228 223 231 233 239 230 227 244 243 236 243 228
287 206 226 211 214 232 322 225 204 195 155 235 189 221 2 265 239 252 218 178 182 211 231 225 226 229 229 227 226 233 251 252 242 240 240 233 231 225 228 233 223 222 222 223 222 214 222 214 208 211 212 210 211 212 212 214 212 213 211 211 212 211 218 222 220 216 217 217 215 219 214 214 215 218 219 219 227 230 231 235 235 228 222 226 230 228 227 224 229 234 235 223 229 250 240 248 242
234 211 222 192 210 165 234 332 260 222 175 210 245 236 219 245 233 234 237 186 188 213 232 231 225 225 223 225 232 234 237 248 245 240 237 227 233 226 228 230 229 225 225 224 221 217 221 214 210 212 216 211 210 211 211 210 211 213 213 213 210 216 221 222 221 213 220 218 216 221 213 213 216 217 217 218 226 229 232 233 233 222 212 219 226 226 231 223 225 226 242 224 221 236 248 250 256
200 198 223 259 281 214 218 142 257 138 267 220 205 233 229 259 289 272 233 192 196 212 220 228 226 224 224 225 233 239 241 243 248 243 234 228 232 233 229 229 229 224 224 221 220 221 223 220 211 215 214 210 211 211 210 208 208 214 217 214 218 224 226 223 216 220 219 217 220 218 213 215 217 217 217 217 224 227 230 230 230 221 207 214 222 229 232 227 224 224 234 241 220 229 242 246 253
197 188 212 208 203 216 212 234 268 161 206 230 213 222 223 235 247 252 261 185 194 221 235 252 260 249 242 234 236 238 240 244 248 249 238 232 228 230 228 227 230 227 226 222 219 216 221 222 214 219 212 205 206 202 185 197 195 206 212 218 234 226 224 222 217 222 214 221 217 212 214 219 218 216 217 216 222 224 228 229 230 222 211 209 220 229 232 225 225 225 231 235 243 240 233 249 249
210 218 237 213 214 275 298 261 247 244 198 218 221 231 222 224 225 238 237 208 214 235 240 241 247 245 240 239 236 237 238 242 250 270 253 242 242 233 227 218 226 223 224 218 216 220 218 216 206 220 206 193 195 192 192 191 198 200 214 219 226 219 218 217 221 217 217 219 210 208 212 217 217 217 218 215 222 223 227 230 228 226 214 213 221 230 228 231 224 225 233 222 234 246 248 214 229
133 167 206 241 172 231 222 193 247 229 186 246 229 240 237 229 224 235 236 224 231 220 227 231 237 237 238 236 243 239 240 267 280 271 261 261 251 244 234 224 215 219 228 209 214 221 218 212 210 221 188 197 201 199 197 197 200 199 196 211 214 213 209 208 222 211 214 210 208 209 212 214 213 215 216 216 222 221 226 226 226 226 215 219 226 231 230 228 224 221 219 240 211 233 251 209 206
34 132 227 217 226 276 307 243 251 323 150 254 199 234 245 241 233 246 240 227 230 219 218 219 214 230 238 242 248 254 258 256 260 253 260 253 253 247 225 230 228 221 229 207 221 226 222 211 218 217 199 201 204 200 194 206 205 208 204 215 195 220 221 219 221 209 196 207 210 213 217 216 213 218 214 214 219 222 225 225 226 221 221 220 226 229 227 230 221 222 211 224 240 221 242 222 199
232 227 198 225 173 175 253 261 188 232 177 225 233 247 265 268 246 239 242 228 233 234 233 238 222 225 231 233 234 241 246 249 255 250 246 246 239 242 229 235 232 227 233 225 224 223 220 215 218 211 208 205 203 202 204 212 207 207 216 216 185 196 203 200 212 204 203 202 219 216 221 218 217 219 211 213 217 222 221 225 226 220 222 216 223 231 226 230 222 221 215 222 224 253 230 236 195
227 225 232 239 155 207 215 238 209 243 298 94 307 298 277 220 244 243 249 243 247 249 258 260 256 236 241 252 259 243 243 241 248 261 259 251 242 235 224 227 229 222 227 226 223 218 213 215 217 212 211 208 210 205 207 204 182 185 192 177 110 211 309 203 197 228 211 215 222 210 223 216 218 219 213 214 214 221 220 224 221 223 221 217 217 228 230 229 223 220 217 221 216 228 250 245 218
230 226 215 224 156 200 67 303 127 240 266 212 152 297 261 235 221 230 228 236 234 232 230 239 239 239 229 239 242 247 245 241 239 247 252 256 259 263 244 235 228 225 228 226 220 221 215 221 219 214 211 211 212 209 201 185 195 191 172 183 204 215 226 206 213 219 209 210 216 224 230 206 213 217 214 215 217 217 220 220 221 220 221 220 215 224 231 231 223 216 215 218 226 220 238 247 244
222 226 201 194 169 188 177 188 136 219 223 273 94 219 268 34 227 221 220 226 237 213 220 233 232 235 232 232 235 240 242 246 244 250 256 259 259 260 264 247 231 227 233 228 208 218 220 226 222 209 208 213 212 207 188 185 197 197 197 202 209 209 218 229 227 229 217 220 220 222 219 200 206 209 216 213 217 217 220 219 218 220 223 224 220 221 230 229 224 218 210 211 222 221 218 240 240
232 157 131 138 188 191 195 180 198 241 291 315 52 210 256 272 256 233 217 226 242 236 235 238 234 234 238 234 228 233 238 239 241 240 242 244 249 247 250 251 246 230 234 200 215 218 219 226 224 218 218 219 214 201 183 189 198 202 206 213 215 219 217 231 223 226 211 203 201 221 210 212 207 208 212 213 216 216 218 222 219 221 223 227 216 220 229 230 225 223 208 214 216 214 217 228 241
218 127 147 194 196 154 128 156 211 215 75 271 306 12 277 251 264 210 176 236 253 244 235 237 236 233 238 242 236 231 232 234 235 243 246 240 238 240 243 262 261 251 243 227 221 223 222 226 225 222 223 220 218 195 190 195 201 201 205 210 222 230 233 239 237 186 205 199 211 217 209 214 208 211 212 213 213 216 215 219 218 221 225 227 216 229 230 226 223 223 213 210 214 218 217 226 235
219 161 167 164 154 176 174 185 170 290 191 230 200 166 234 269 234 183 244 216 241 242 228 237 233 230 234 236 242 241 239 243 243 241 243 245 242 251 258 248 285 237 247 236 235 229 229 225 225 222 229 222 217 202 197 201 202 202 203 207 216 227 225 238 231 224 221 188 212 220 214 211 212 212 216 216 215 214 216 216 218 222 226 227 221 228 232 228 226 224 222 217 217 220 219 220 227
112 132 92 119 160 180 176 161 128 71 236 232 204 197 190 269 236 208 187 211 231 258 252 233 234 239 243 241 241 242 237 234 236 238 242 246 260 314 314 284 270 273 248 235 240 231 229 219 222 222 229 224 203 198 192 204 202 201 209 212 216 224 228 226 231 238 231 217 226 229 212 217 203 215 208 216 215 213 217 216 218 224 226 226 224 227 228 227 228 226 226 221 220 221 222 223 227
156 165 131 101 344 64 136 327 137 223 240 228 204 198 182 229 254 202 218 248 220 218 236 226 229 230 231 236 234 237 238 236 237 238 245 255 292 300 334 288 273 263 264 257 251 244 231 226 218 227 238 218 202 197 194 205 197 202 209 212 217 223 225 219 220 234 226 219 222 230 221 206 220 217 210 213 217 215 217 221 220 224 225 222 225 224 229 228 228 223 222 217 224 224 227 226 228
260 119 136 182 206 146 226 151 202 207 225 226 188 167 234 230 247 189 272 270 274 256 236 230 222 226 225 227 227 224 226 230 233 239 251 264 265 277 284 270 275 272 261 254 249 239 233 226 212 215 236 212 205 193 197 203 197 205 205 209 216 217 216 217 220 227 228 219 219 225 213 218 217 210 216 215 222 211 214 221 218 218 224 222 226 223 228 224 223 218 218 220 221 221 220 221 228
207 173 164 183 191 194 206 198 220 251 249 220 120 179 227 277 277 238 254 244 252 252 238 236 240 246 256 254 250 247 246 242 246 245 245 256 253 254 254 265 270 275 272 259 256 248 235 223 214 209 234 196 202 196 202 199 207 208 206 209 214 210 216 216 221 225 231 222 214 220 214 214 214 217 212 215 216 209 214 220 220 223 224 224 222 226 226 223 217 217 217 218 220 222 218 223 228
200 196 185 198 190 182 205 190 202 203 209 357 188 109 227 168 233 320 226 234 232 242 247 248 235 241 247 260 272 272 262 252 232 227 227 232 244 244 256 253 257 257 264 271 276 268 250 233 212 215 227 213 195 198 195 205 211 211 211 215 218 211 220 220 227 227 231 225 222 220 226 216 218 225 215 226 203 205 217 220 222 226 225 225 225 225 227 225 221 219 220 221 224 217 217 221 227
208 220 225 207 215 205 237 182 181 164 121 145 197 205 188 226 302 303 247 343 295 266 243 244 247 241 249 262 256 251 249 249 238 238 255 255 245 247 253 256 254 275 337 356 6 356 27 208 187 196 194 179 162 193 211 222 234 228 221 216 218 216 223 226 237 232 236 225 230 222 236 228 232 235 231 218 217 207 217 220 223 227 227 226 225 225 224 220 218 218 225 220 227 213 219 223 226
177 162 218 216 6 223 290 358 242 74 174 231 148 276 280 323 280 255 271 295 282 280 262 250 246 248 240 245 252 262 255 253 235 232 230 242 249 249 252 219 38 33 27 13 36 12 337 84 114 107 98 85 73 53 61 77 101 146 220 236 251 236 230 228 232 240 237 231 228 231 232 234 231 228 233 217 226 216 221 219 222 228 228 226 228 224 222 221 216 216 222 221 226 217 215 226 226
140 206 212 81 48 96 163 222 221 200 209 240 173 221 247 199 271 303 219 217 233 242 236 241 241 254 261 254 248 246 249 237 234 226 176 199 204 164 67 40 29 38 9 315 51 23 325 327 68 75 45 59 31 38 43 39 47 81 60 82 245 215 214 219 219 228 228 227 234 235 240 252 242 242 232 233 218 223 222 220 223 228 226 223 225 226 220 221 215 218 222 222 224 211 215 228 226
202 180 358 175 206 238 141 253 225 156 215 237 220 206 231 191 240 236 217 217 222 232 245 256 263 253 248 252 251 265 237 221 190 180 167 167 133 79 55 40 351 1 348 344 3 12 295 16 56 63 60 24 16 16 20 29 35 40 44 43 40 16 343 287 290 290 278 235 255 260 256 256 287 268 248 248 234 235 226 228 220 234 231 231 230 229 221 223 214 224 223 225 223 207 215 227 227
21 64 92 209 15 253 193 197 307 168 234 213 246 162 237 199 228 229 214 225 210 223 244 242 242 242 241 254 270 254 231 209 186 168 166 150 106 63 29 9 21 10 9 6 6 325 9 38 61 56 55 42 34 30 21 44 19 48 57 57 41 41 40 57 62 54 67 38 310 310 277 268 250 251 240 233 231 231 231 230 227 226 235 233 232 232 219 221 217 222 225 222 225 208 218 226 233
167 197 192 141 200 295 35 254 210 184 202 224 245 242 270 246 212 182 206 208 197 208 223 231 238 250 247 238 236 239 220 161 157 155 145 123 96 61 28 354 351 15 28 39 39 19 8 51 64 59 71 44 46 17 34 35 46 57 67 58 44 39 44 50 66 59 73 54 36 19 19 313 351 10 331 285 242 243 244 237 240 232 234 238 233 243 222 217 218 228 226 226 223 212 216 227 229
191 196 210 196 180 226 216 242 176 189 205 218 216 247 254 278 189 214 214 227 202 221 230 246 274 288 239 273 293 304 191 152 151 147 130 121 112 90 25 1 350 68 52 56 21 35 40 47 42 45 62 46 46 29 35 56 62 65 64 59 52 47 48 53 64 53 58 48 40 35 23 37 61 34 33 29 19 349 337 298 260 274 269 269 267 259 252 214 230 230 240 227 226 220 222 228 226